Temperature
4 4 4 4 4 4 4 5 5 6 6 6 4 3 2 1 -0 -1 -2 -2 -2 -2 -2 -2 -2 -2 -2 -2 -2 -3 -3 -3 -3 -3 -3 -3 -3 -3 -3 -4 -4 -4 -4 -4
2 3 3 3 3 3 3 4 4 4 4 3 2 1 0 -0 -1 -2 -2 -2 -3 -2 -2 -2 -2 -2 -2 -3 -3 -3 -3 -3 -3 -3 -4 -4 -4 -4 -4 -4 -4 -4 -4 -4
3 2 2 3 3 3 3 3 3 3 3 2 1 0 -0 -1 -2 -2 -3 -3 -3 -3 -3 -3 -3 -3 -3 -3 -3 -3 -4 -4 -4 -4 -4 -4 -4 -4 -4 -4 -5 -5 -5 -5
1 1 2 4 1 2 2 1 1 1 1 0 -1 -2 -3 -3 -3 -3 -3 -4 -4 -3 -3 -3 -3 -3 -3 -3 -4 -4 -4 -5 -5 -5 -4 -4 -5 -5 -5 -5 -5 -5 -5 -5
1 2 3 2 0 -0 0 0 -1 -1 -1 -2 -3 -3 -3 -4 -4 -4 -4 -4 -4 -4 -4 -4 -4 -4 -4 -4 -5 -5 -5 -5 -5 -5 -5 -5 -5 -5 -5 -6 -5 -6 -6 -6
0 1 2 2 -1 -2 -1 0 -2 -2 -2 -3 -3 -0 -1 -5 -5 -4 -4 -4 -4 -4 -4 -4 -4 -4 -5 -5 -5 -6 -6 -6 -6 -6 -6 -6 -6 -6 -6 -6 -6 -6 -6 -6
-0 1 1 -1 -3 -2 0 -0 -3 -4 -4 -4 -4 -3 -5 -6 -5 -5 -5 -5 -5 -5 -5 -5 -5 -5 -5 -6 -6 -6 -6 -6 -6 -6 -6 -6 -6 -6 -6 -7 -7 -7 -7 -7
-1 -0 -0 -3 -3 -2 -2 -4 -5 -5 -5 -6 -6 -6 -7 -6 -6 -6 -6 -5 -5 -5 -6 -6 -6 -6 -6 -6 -7 -7 -7 -7 -7 -7 -7 -7 -7 -7 -7 -7 -7 -7 -7 -7
-2 -1 -3 -5 -5 -5 -5 -5 -6 -6 -6 -6 -7 -7 -7 -7 -7 -7 -6 -6 -6 -6 -6 -6 -7 -7 -7 -7 -7 -7 -7 -7 -7 -7 -8 -8 -8 -8 -8 -8 -8 -8 -8 -8
-3 -4 -5 -6 -6 -6 -6 -6 -6 -6 -7 -7 -7 -8 -8 -8 -8 -7 -7 -7 -7 -7 -7 -7 -7 -7 -8 -8 -8 -8 -8 -8 -8 -8 -8 -9 -9 -9 -9 -9 -9 -9 -9 -9
-4 -5 -6 -6 -7 -7 -7 -7 -7 -7 -7 -7 -8 -8 -8 -8 -8 -8 -8 -8 -8 -8 -8 -8 -8 -8 -8 -8 -8 -8 -9 -9 -9 -9 -9 -9 -9 -9 -9 -9 -9 -9 -9 -9
-5 -6 -6 -7 -8 -8 -8 -8 -8 -8 -8 -8 -8 -9 -9 -9 -9 -9 -9 -9 -8 -8 -8 -8 -8 -8 -9 -9 -9 -9 -9 -9 -10 -10 -10 -10 -10 -10 -10 -10 -10 -10 -10 -10
-8 -8 -9 -9 -9 -8 -9 -9 -9 -9 -9 -9 -9 -9 -9 -9 -9 -9 -9 -9 -9 -9 -9 -9 -9 -9 -9 -10 -10 -10 -10 -10 -10 -10 -10 -11 -11 -11 -11 -11 -11 -11 -11 -11
-9 -9 -9 -9 -10 -9 -9 -9 -9 -9 -10 -10 -10 -10 -10 -10 -10 -10 -10 -10 -10 -10 -10 -10 -10 -10 -10 -10 -10 -10 -10 -10 -11 -11 -11 -11 -11 -11 -11 -11 -11 -11 -11 -11
-10 -10 -10 -10 -10 -10 -10 -10 -10 -10 -10 -10 -10 -10 -10 -10 -10 -10 -10 -10 -10 -10 -10 -10 -10 -10 -11 -11 -11 -11 -11 -11 -11 -11 -12 -12 -12 -12 -12 -12 -12 -12 -12 -12
-10 -10 -10 -10 -11 -11 -11 -11 -11 -11 -11 -11 -11 -11 -11 -11 -11 -11 -11 -11 -11 -11 -11 -11 -11 -11 -11 -11 -11 -12 -12 -12 -12 -12 -12 -12 -12 -12 -12 -12 -13 -13 -13 -13
-11 -11 -11 -11 -11 -11 -11 -11 -11 -11 -11 -11 -11 -11 -12 -12 -12 -12 -12 -12 -12 -12 -12 -12 -12 -12 -12 -12 -12 -12 -12 -12 -12 -12 -13 -13 -13 -13 -13 -13 -13 -13 -13 -13
-11 -11 -11 -11 -11 -11 -11 -11 -12 -12 -12 -12 -12 -12 -12 -12 -12 -12 -12 -12 -12 -12 -12 -12 -12 -12 -12 -12 -12 -13 -13 -13 -13 -13 -13 -13 -13 -13 -13 -13 -14 -14 -14 -14
-11 -11 -11 -11 -11 -11 -12 -12 -12 -12 -12 -12 -12 -12 -12 -12 -13 -13 -12 -12 -12 -12 -12 -12 -13 -13 -13 -13 -13 -13 -13 -13 -13 -13 -13 -13 -13 -14 -14 -14 -14 -14 -14 -14
-11 -11 -12 -12 -12 -12 -12 -12 -12 -12 -12 -12 -12 -13 -13 -13 -13 -13 -13 -13 -13 -13 -13 -13 -13 -13 -13 -13 -13 -13 -13 -13 -14 -14 -14 -14 -14 -14 -14 -14 -14 -14 -14 -14
-12 -12 -12 -12 -12 -12 -12 -12 -12 -12 -13 -13 -13 -13 -13 -13 -13 -13 -13 -13 -13 -13 -13 -13 -13 -13 -13 -13 -14 -14 -14 -14 -14 -14 -14 -14 -14 -14 -14 -15 -15 -15 -15 -15
-12 -12 -12 -12 -12 -12 -13 -13 -13 -13 -13 -13 -13 -13 -13 -13 -13 -13 -13 -13 -13 -13 -13 -14 -14 -14 -14 -14 -14 -14 -14 -14 -14 -14 -14 -14 -15 -15 -15 -15 -15 -15 -15 -15
-12 -12 -12 -12 -13 -13 -13 -13 -13 -13 -13 -13 -13 -14 -14 -14 -14 -14 -14 -14 -14 -14 -14 -14 -14 -14 -14 -14 -14 -14 -14 -14 -14 -14 -15 -15 -15 -15 -15 -15 -15 -15 -15 -15
-12 -12 -13 -13 -13 -13 -13 -13 -13 -13 -14 -14 -14 -14 -14 -14 -14 -14 -14 -14 -14 -14 -14 -14 -14 -14 -14 -14 -14 -14 -14 -15 -15 -15 -15 -15 -15 -15 -15 -15 -15 -15 -15 -15
-13 -13 -13 -13 -13 -13 -13 -13 -14 -14 -14 -14 -14 -14 -14 -14 -14 -14 -14 -14 -14 -14 -14 -14 -14 -15 -15 -15 -15 -15 -15 -15 -15 -15 -15 -15 -15 -15 -15 -15 -15 -15 -15 -15
-13 -13 -14 -14 -14 -14 -14 -14 -14 -14 -14 -14 -14 -14 -14 -15 -15 -15 -15 -15 -15 -15 -15 -15 -15 -15 -15 -15 -15 -15 -15 -15 -15 -15 -15 -15 -15 -15 -15 -15 -15 -15 -15 -15
-14 -14 -14 -14 -14 -14 -15 -15 -15 -15 -15 -15 -15 -15 -15 -15 -15 -15 -15 -15 -15 -15 -15 -15 -15 -15 -15 -15 -15 -15 -15 -15 -15 -15 -15 -15 -15 -15 -15 -15 -16 -16 -16 -15
Wind_Speed
9 8 6 9 11 12 14 15 13 14 14 12 9 7 5 3 2 1 1 1 1 2 2 3 3 3 3 4 4 5 5 5 5 4 4 4 4 4 3 3 3 3 4 4
7 7 7 10 12 13 14 14 16 16 15 9 7 5 4 3 3 3 3 2 2 2 2 3 3 3 3 3 3 4 5 4 4 4 3 3 3 3 3 3 3 3 4 4
5 4 5 9 10 11 9 9 9 13 10 5 5 5 5 4 3 3 3 2 2 2 2 2 3 3 4 3 3 4 4 3 4 4 3 3 3 3 3 3 3 4 4 4
3 3 8 3 2 4 7 5 5 6 6 5 5 4 4 3 3 3 2 2 2 2 2 2 2 3 3 3 3 3 3 3 3 3 3 3 3 3 3 3 3 4 4 4
4 6 8 4 1 1 4 5 3 5 5 4 4 2 1 3 3 3 2 2 2 1 1 1 2 2 3 3 3 3 3 2 3 3 3 3 3 3 3 3 3 3 4 4
5 6 6 2 3 4 3 4 3 4 5 4 2 3 2 4 5 3 2 1 1 0 1 1 2 2 3 2 2 2 2 2 2 3 3 3 3 3 3 3 3 3 3 3
7 7 5 3 4 1 3 3 4 4 4 2 2 3 3 5 4 3 2 2 1 1 1 1 1 2 2 1 1 1 1 1 2 2 3 3 2 2 2 2 2 2 2 2
4 6 4 3 2 0 3 4 4 3 3 2 2 3 3 4 4 3 3 2 2 2 2 1 1 2 1 1 0 0 1 1 1 2 1 2 2 2 2 2 2 2 2 2
3 2 2 2 1 3 3 4 4 3 3 2 2 3 4 4 4 3 2 2 2 2 2 2 2 1 1 0 0 0 0 1 1 1 1 2 2 2 1 2 2 2 2 2
3 3 3 3 4 5 4 3 3 3 2 2 2 2 3 4 3 3 2 2 2 2 2 2 2 2 1 0 0 1 1 1 1 1 1 1 1 1 2 2 2 2 2 2
4 4 4 3 4 4 4 4 3 3 3 2 2 2 3 3 3 3 2 2 1 1 1 1 2 2 2 1 0 0 1 1 1 1 1 1 1 1 2 2 2 2 2 3
4 3 4 5 5 4 3 4 4 3 4 4 2 2 3 3 3 2 2 2 1 1 1 1 2 2 2 1 0 1 1 1 1 1 1 1 1 1 2 2 3 4 4 4
3 4 3 3 4 4 3 3 3 3 3 3 3 2 2 2 3 2 2 2 2 2 2 2 2 2 2 1 0 0 1 1 1 1 1 1 1 1 1 2 2 2 3 4
4 2 2 2 3 4 3 3 3 3 3 3 3 3 3 3 3 3 3 3 2 2 2 2 2 2 2 2 1 0 0 1 1 1 1 1 1 1 1 2 2 2 3 4
4 3 2 2 2 3 3 3 3 3 4 4 3 3 3 3 3 3 3 3 2 2 2 2 2 2 2 1 1 1 1 1 1 1 1 1 1 1 1 2 2 2 3 3
4 3 2 2 2 3 3 3 3 3 3 4 4 4 3 3 3 3 3 3 2 2 2 2 2 3 2 1 1 1 1 1 1 1 1 1 1 1 2 2 2 3 3 3
2 3 3 3 3 3 3 3 2 3 3 3 3 3 3 3 3 3 3 3 2 2 3 2 3 3 2 1 1 1 1 1 1 1 1 1 2 2 2 2 3 3 3 4
2 2 2 2 2 3 3 3 3 2 3 3 3 2 2 2 3 3 4 4 3 3 3 3 3 3 2 1 1 1 1 1 1 1 1 2 2 2 3 3 4 4 4 4
3 2 2 2 2 2 2 2 3 3 2 2 2 2 2 2 2 3 3 3 3 4 4 4 4 3 2 2 2 1 2 2 2 2 2 3 3 3 3 4 4 4 4 4
3 3 3 3 3 2 2 2 2 2 2 2 2 2 2 3 3 2 3 3 3 3 4 4 4 3 3 3 2 2 2 2 2 3 3 3 3 3 4 4 4 5 5 5
3 3 3 3 3 3 3 2 2 2 3 2 2 2 3 3 3 3 3 3 4 4 4 5 4 3 3 2 2 2 2 3 3 3 3 3 3 4 4 4 5 5 5 5
2 2 3 3 3 3 3 3 2 2 3 3 3 3 3 3 4 3 3 4 4 6 5 4 4 5 4 3 2 2 3 3 3 3 3 4 4 4 5 5 5 5 5 5
2 2 2 2 2 3 3 3 3 2 3 3 4 4 4 4 4 3 4 4 4 6 5 4 5 6 5 3 2 2 3 3 4 4 4 4 5 5 5 6 5 5 6 6
2 2 2 2 2 2 3 4 4 3 3 4 4 4 4 4 4 4 4 6 7 7 5 6 7 7 5 2 2 3 3 4 4 4 4 5 5 5 5 6 6 6 6 7
2 2 2 2 2 2 3 4 4 4 4 4 5 5 4 3 4 5 5 5 7 7 5 6 7 7 4 3 3 4 4 4 5 5 5 5 5 5 6 6 6 6 7 7
2 2 2 2 2 3 3 3 3 4 4 4 5 4 4 4 5 5 4 5 6 7 5 4 4 5 4 4 4 5 5 5 5 5 5 5 6 6 6 6 8 7 7 8
2 2 2 2 3 3 3 3 3 4 4 5 5 5 5 5 5 5 5 5 5 5 4 4 4 4 4 4 4 5 5 5 5 5 6 6 6 6 7 8 7 7 8 8
Wind_Direction
264 274 257 250 246 232 228 237 248 259 264 276 283 289 295 290 267 241 249 253 214 193 185 178 173 172 171 171 170 170 174 178 182 183 184 188 191 195 201 207 216 220 225 232
262 259 264 264 258 244 241 246 250 263 269 286 295 292 285 274 265 266 267 255 233 201 189 187 182 179 176 175 169 170 176 179 176 175 180 189 192 197 203 211 220 225 228 231
262 276 277 259 251 237 235 234 241 254 270 297 291 280 281 279 266 264 269 266 250 227 210 206 197 186 183 178 169 170 174 177 178 177 181 192 195 198 207 214 221 229 233 234
256 257 244 263 10 251 237 246 256 271 295 297 295 296 302 294 286 284 281 271 262 245 225 213 190 173 164 162 166 169 172 180 183 185 190 195 200 208 215 222 228 236 239 239
224 245 262 265 322 272 235 249 293 283 293 312 326 303 317 0 331 303 294 285 274 261 216 166 158 150 145 154 162 168 175 187 193 194 196 199 207 218 225 226 233 240 240 238
221 238 250 295 347 319 247 242 346 315 302 312 322 284 316 3 346 335 336 330 334 358 113 135 134 137 143 157 170 183 191 205 207 206 205 208 213 223 231 233 238 243 247 239
229 240 261 360 337 288 216 313 350 335 328 320 303 310 327 334 341 345 356 5 25 67 95 105 121 134 142 159 196 203 200 204 209 212 214 211 212 219 226 234 242 246 247 248
217 229 251 27 53 238 323 334 329 333 338 336 332 332 336 344 351 360 12 23 38 60 49 47 87 124 136 173 227 184 191 208 215 215 215 207 209 217 220 221 231 247 244 259
217 235 359 14 346 337 327 313 319 323 328 331 331 336 345 349 353 358 13 27 44 63 51 34 36 75 119 310 130 147 181 234 233 209 210 207 205 207 214 221 232 251 258 258
251 273 310 327 342 347 349 339 336 331 327 330 325 333 344 347 350 356 6 21 40 61 56 24 13 20 17 350 269 177 200 238 233 204 208 207 216 215 223 228 238 252 264 275
264 294 314 316 342 352 356 357 359 1 2 357 356 347 348 345 347 350 353 4 30 55 45 6 4 4 3 9 99 179 209 225 230 216 205 217 239 246 246 248 256 262 265 271
274 302 296 304 331 344 348 350 356 2 6 9 10 353 349 344 343 345 348 2 17 22 18 358 355 352 352 357 180 188 214 227 234 231 222 232 250 302 309 294 298 294 293 297
298 322 319 313 339 359 1 359 0 5 7 2 3 357 349 347 349 355 356 0 1 352 349 350 351 347 347 350 343 187 209 248 263 255 243 249 256 276 310 329 319 311 315 321
340 343 335 344 350 358 6 10 16 17 14 11 4 2 1 357 355 355 350 345 344 347 351 355 354 342 343 354 357 343 307 284 273 253 248 250 259 270 278 294 310 320 325 326
2 356 327 338 2 6 13 18 20 12 9 9 9 3 359 352 343 341 341 345 354 359 355 352 348 338 343 349 339 323 318 311 301 276 262 261 271 283 291 297 303 311 317 320
345 5 21 26 11 4 5 5 2 350 352 353 355 353 349 345 340 340 345 351 356 346 338 335 331 329 335 333 332 330 334 334 329 302 266 266 272 282 290 293 297 301 305 312
352 348 353 350 347 344 341 338 335 330 335 337 337 341 346 351 353 352 352 354 346 327 318 316 318 323 327 322 315 317 324 319 313 295 274 268 273 279 283 283 284 289 293 297
326 312 302 290 295 315 329 340 341 336 329 327 333 339 343 346 340 335 337 343 347 344 336 330 321 321 319 308 297 294 294 287 278 275 276 273 279 277 276 278 281 285 291 294
5 2 357 347 335 328 328 333 333 330 327 328 331 331 329 326 327 329 335 341 336 332 331 327 321 325 313 299 292 278 279 277 277 277 278 278 282 278 278 279 281 284 287 290
7 8 10 9 9 7 346 339 337 333 330 330 333 336 336 332 331 329 331 323 310 308 313 315 316 309 298 284 279 269 266 266 270 274 275 275 278 279 280 280 280 281 281 282
359 3 7 6 5 5 357 347 343 338 338 338 328 316 316 321 323 319 318 318 321 319 313 314 317 305 294 287 272 266 263 266 269 270 271 274 276 277 277 277 279 279 280 281
344 350 352 354 358 356 355 353 348 339 336 332 324 314 314 317 320 317 302 292 306 315 317 309 305 300 303 296 279 271 267 267 268 268 267 269 270 272 273 275 275 276 276 277
327 331 335 336 334 338 346 347 341 332 325 319 313 308 305 305 307 305 309 309 308 309 310 299 300 304 307 304 292 279 273 270 270 268 268 270 271 270 271 272 272 272 273 274
327 330 329 331 344 350 341 336 333 327 318 312 308 303 300 303 305 299 294 309 317 312 305 300 305 306 311 304 290 281 276 273 272 271 272 273 271 269 268 268 270 271 271 272
337 339 343 346 342 330 323 326 330 330 326 321 318 315 307 298 295 303 305 304 308 311 307 307 308 307 305 290 282 277 274 270 270 273 271 270 270 271 271 270 269 270 271 271
338 332 329 325 320 317 320 323 324 324 322 320 320 320 317 311 304 302 302 304 304 307 307 302 300 299 291 284 280 277 274 276 279 277 273 272 271 271 271 271 271 269 270 269
344 342 339 341 340 332 325 322 319 317 317 313 311 314 316 315 313 311 307 306 307 305 302 301 299 293 290 288 285 281 278 275 273 272 272 271 270 270 270 271 271 271 270 269
Height
1465 1464 1465 1464 1463 1464 1464 1459 1456 1449 1449 1449 1453 1455 1456 1456 1456 1456 1455 1455 1455 1455 1455 1456 1457 1458 1459 1460 1461 1462 1464 1465 1467 1469 1470 1472 1473 1474 1475 1477 1478 1478 1479 1479
1468 1465 1465 1463 1460 1460 1459 1458 1455 1454 1452 1454 1455 1455 1455 1455 1455 1454 1454 1454 1454 1453 1454 1454 1455 1455 1456 1458 1459 1460 1461 1463 1464 1465 1467 1468 1469 1471 1472 1472 1473 1474 1474 1474
1462 1464 1464 1458 1454 1455 1455 1454 1455 1452 1451 1454 1454 1454 1453 1453 1453 1453 1453 1452 1452 1452 1452 1452 1453 1453 1454 1455 1457 1458 1459 1460 1461 1462 1463 1465 1466 1467 1467 1468 1469 1469 1469 1470
1466 1466 1462 1450 1456 1455 1454 1456 1457 1456 1455 1455 1455 1454 1453 1453 1452 1451 1451 1451 1450 1450 1450 1451 1451 1452 1452 1453 1454 1455 1456 1457 1458 1459 1460 1461 1462 1463 1463 1464 1464 1465 1465 1465
1465 1458 1449 1453 1457 1458 1457 1455 1458 1457 1455 1455 1454 1452 1452 1452 1451 1451 1450 1449 1449 1449 1449 1449 1449 1449 1450 1451 1452 1453 1454 1455 1456 1456 1457 1457 1458 1459 1459 1460 1460 1460 1460 1460
1463 1458 1449 1452 1459 1459 1458 1453 1457 1457 1455 1455 1453 1450 1451 1452 1450 1450 1449 1448 1448 1447 1447 1447 1447 1448 1448 1449 1450 1450 1451 1452 1453 1453 1454 1454 1455 1455 1456 1456 1456 1456 1456 1456
1461 1456 1450 1461 1461 1458 1456 1454 1458 1457 1456 1455 1454 1453 1453 1451 1450 1449 1448 1447 1447 1446 1446 1446 1446 1446 1447 1447 1448 1448 1449 1449 1450 1451 1451 1451 1452 1452 1452 1452 1453 1453 1453 1453
1461 1458 1457 1463 1461 1461 1460 1460 1459 1457 1457 1455 1454 1453 1451 1450 1449 1448 1447 1446 1446 1445 1445 1445 1446 1446 1445 1446 1446 1446 1447 1447 1447 1448 1448 1448 1448 1448 1449 1449 1449 1449 1449 1449
1461 1462 1463 1463 1462 1462 1461 1460 1458 1457 1456 1455 1453 1452 1450 1449 1448 1447 1446 1446 1445 1445 1444 1445 1445 1445 1444 1444 1444 1444 1445 1445 1445 1445 1446 1445 1445 1445 1445 1446 1446 1445 1445 1445
1463 1462 1463 1462 1462 1461 1460 1459 1458 1457 1455 1454 1452 1451 1450 1448 1447 1446 1446 1445 1445 1444 1444 1443 1443 1443 1443 1443 1442 1442 1442 1443 1443 1443 1443 1443 1443 1443 1443 1443 1443 1442 1442 1442
1463 1463 1463 1461 1461 1461 1459 1458 1457 1455 1454 1453 1452 1450 1449 1448 1447 1446 1445 1444 1444 1443 1443 1442 1442 1442 1442 1441 1441 1440 1440 1440 1440 1440 1440 1440 1440 1440 1440 1440 1441 1440 1440 1440
1462 1464 1464 1462 1461 1460 1459 1457 1456 1454 1453 1452 1451 1449 1448 1447 1446 1445 1444 1443 1443 1442 1442 1441 1441 1441 1440 1440 1439 1439 1438 1438 1438 1438 1438 1438 1438 1438 1438 1438 1438 1438 1437 1437
1465 1463 1463 1461 1460 1459 1458 1456 1455 1454 1452 1451 1450 1449 1447 1446 1445 1444 1443 1443 1442 1441 1441 1440 1440 1439 1439 1438 1438 1437 1437 1436 1436 1436 1436 1436 1436 1435 1435 1435 1435 1435 1434 1433
1463 1462 1461 1460 1459 1458 1457 1455 1454 1453 1451 1450 1449 1448 1447 1446 1445 1444 1443 1442 1441 1440 1440 1439 1438 1438 1437 1437 1436 1436 1435 1435 1434 1434 1434 1434 1434 1434 1433 1432 1432 1431 1431 1430
1462 1462 1461 1459 1458 1457 1456 1454 1453 1452 1451 1449 1449 1448 1446 1445 1444 1443 1442 1441 1440 1439 1439 1438 1437 1437 1436 1435 1435 1434 1434 1433 1433 1432 1432 1432 1432 1432 1431 1430 1429 1429 1428 1427
1461 1460 1459 1458 1457 1456 1455 1453 1452 1451 1450 1449 1448 1447 1446 1445 1443 1442 1441 1440 1439 1438 1437 1437 1436 1435 1435 1434 1434 1433 1432 1432 1431 1431 1431 1430 1430 1430 1429 1429 1428 1427 1426 1425
1460 1459 1458 1457 1456 1455 1454 1453 1452 1450 1449 1448 1447 1446 1445 1444 1443 1441 1440 1439 1438 1437 1436 1435 1435 1434 1433 1433 1432 1432 1431 1431 1430 1430 1429 1429 1428 1428 1427 1427 1426 1426 1425 1424
1461 1459 1458 1457 1455 1454 1453 1452 1451 1450 1449 1448 1447 1446 1444 1443 1442 1441 1439 1438 1437 1436 1435 1434 1433 1433 1432 1431 1431 1430 1430 1429 1429 1428 1428 1427 1427 1426 1426 1425 1424 1423 1422 1421
1459 1458 1457 1456 1455 1453 1452 1451 1450 1449 1448 1447 1446 1445 1444 1442 1441 1440 1439 1437 1436 1434 1434 1433 1432 1431 1431 1430 1429 1429 1428 1427 1427 1426 1426 1425 1425 1424 1423 1422 1421 1420 1419 1418
1459 1458 1456 1455 1454 1453 1452 1451 1450 1449 1448 1447 1445 1444 1443 1442 1440 1439 1438 1436 1435 1434 1433 1432 1431 1430 1429 1428 1428 1427 1426 1426 1425 1424 1424 1423 1422 1421 1420 1420 1419 1417 1416 1415
1458 1457 1456 1455 1454 1453 1451 1450 1449 1448 1447 1446 1445 1443 1442 1441 1439 1438 1436 1435 1434 1433 1431 1430 1429 1428 1427 1426 1426 1425 1424 1423 1422 1422 1421 1420 1419 1418 1417 1416 1415 1414 1413 1411
1458 1457 1455 1454 1453 1452 1451 1450 1449 1447 1446 1445 1444 1442 1441 1439 1438 1437 1435 1434 1432 1431 1430 1428 1427 1426 1425 1424 1423 1422 1422 1421 1420 1419 1418 1417 1416 1415 1414 1413 1411 1410 1409 1407
1457 1456 1455 1453 1452 1451 1450 1449 1448 1446 1445 1444 1442 1441 1439 1438 1436 1435 1433 1432 1430 1429 1427 1426 1425 1424 1423 1422 1421 1420 1419 1418 1417 1416 1415 1413 1412 1411 1410 1408 1407 1406 1404 1403
1456 1455 1454 1453 1451 1450 1449 1447 1446 1445 1444 1442 1441 1439 1438 1436 1434 1433 1431 1429 1428 1426 1425 1423 1422 1421 1420 1419 1417 1416 1415 1414 1413 1412 1411 1410 1408 1407 1405 1404 1402 1401 1399 1398
1455 1454 1452 1451 1450 1449 1447 1446 1445 1443 1442 1440 1439 1437 1435 1434 1432 1430 1428 1427 1425 1423 1422 1420 1419 1418 1417 1415 1414 1413 1412 1411 1409 1408 1407 1405 1404 1403 1401 1400 1398 1396 1394 1393
1453 1452 1451 1450 1449 1447 1446 1444 1443 1441 1440 1438 1436 1435 1433 1431 1429 1427 1425 1424 1422 1420 1419 1417 1416 1415 1413 1412 1411 1409 1408 1406 1405 1404 1402 1401 1400 1398 1396 1395 1393 1391 1389 1388
1452 1451 1449 1448 1447 1446 1444 1443 1441 1439 1438 1436 1434 1432 1430 1428 1426 1424 1422 1420 1419 1417 1415 1414 1412 1411 1410 1408 1407 1405 1404 1402 1401 1399 1398 1396 1395 1393 1391 1390 1388 1386 1384 1382